TimeMST,TemperatureF,Dew PointF,Humidity,Sea Level PressureIn,VisibilityMPH,Wind Direction,Wind SpeedMPH,Gust SpeedMPH,PrecipitationIn,Events,Conditions,WindDirDegrees,DateUTC
12:53 AM,39.9,12.0,32,29.81,10.0,West,8.1,-,N/A,,Clear,270,2012-11-22 07:53:00
1:53 AM,39.0,12.9,34,29.81,10.0,West,11.5,-,N/A,,Clear,280,2012-11-22 08:53:00
2:53 AM,43.0,14.0,31,29.83,10.0,WNW,13.8,-,N/A,,Clear,290,2012-11-22 09:53:00
3:53 AM,37.9,15.1,39,29.87,10.0,West,8.1,-,N/A,,Clear,280,2012-11-22 10:53:00
4:53 AM,45.0,17.1,33,29.88,10.0,NW,8.1,-,N/A,,Clear,320,2012-11-22 11:53:00
5:53 AM,41.0,25.0,53,29.95,10.0,NNW,13.8,-,N/A,,Clear,340,2012-11-22 12:53:00
6:53 AM,41.0,25.0,53,29.98,10.0,NNW,16.1,25.3,N/A,,Clear,340,2012-11-22 13:53:00
7:53 AM,37.0,23.0,57,30.05,10.0,North,11.5,20.7,N/A,,Clear,360,2012-11-22 14:53:00
8:53 AM,43.0,21.9,43,30.02,10.0,NW,11.5,20.7,N/A,,Clear,310,2012-11-22 15:53:00
9:53 AM,45.0,17.1,33,30.06,10.0,NNW,17.3,29.9,N/A,,Clear,340,2012-11-22 16:53:00
10:53 AM,46.0,10.9,24,30.04,10.0,NNW,19.6,27.6,N/A,,Clear,340,2012-11-22 17:53:00
11:53 AM,46.0,10.9,24,30.07,10.0,NNW,20.7,27.6,N/A,,Clear,330,2012-11-22 18:53:00
12:53 PM,45.0,7.0,21,30.10,10.0,NNW,27.6,39.1,N/A,,Clear,330,2012-11-22 19:53:00
1:53 PM,45.0,7.0,21,30.12,10.0,NW,25.3,40.3,N/A,,Clear,320,2012-11-22 20:53:00
2:53 PM,42.1,5.0,22,30.14,10.0,NW,26.5,42.6,N/A,,Clear,320,2012-11-22 21:53:00
3:53 PM,41.0,6.1,24,30.21,10.0,NNW,21.9,28.8,N/A,,Clear,330,2012-11-22 22:53:00
4:53 PM,37.0,5.0,26,30.25,10.0,North,6.9,-,N/A,,Clear,360,2012-11-22 23:53:00
5:53 PM,36.0,6.1,29,30.29,10.0,NNW,13.8,-,N/A,,Clear,340,2012-11-23 00:53:00
6:53 PM,34.0,7.0,32,30.32,10.0,NNW,18.4,24.2,N/A,,Clear,340,2012-11-23 01:53:00
7:53 PM,32.0,7.0,35,30.39,10.0,North,12.7,23.0,N/A,,Clear,360,2012-11-23 02:53:00
8:53 PM,28.0,6.1,39,30.42,10.0,North,13.8,-,N/A,,Clear,350,2012-11-23 03:53:00
9:53 PM,26.1,6.1,43,30.45,10.0,WNW,8.1,-,N/A,,Clear,300,2012-11-23 04:53:00
10:53 PM,23.0,6.1,48,30.50,10.0,SSW,4.6,-,N/A,,Clear,210,2012-11-23 05:53:00
11:53 PM,24.1,7.0,48,30.50,10.0,NNW,8.1,-,N/A,,Clear,330,2012-11-23 06:53:00